Date String (YYYY-MM-DD hh:mm:ss) UTC,Instrument flags,Ambient pressure (hPa),Sample flow (lpm),Bypass flow (lpm),Sample temperature (°C),Ambient temperature (°C),ASC tube jacket temperature (°C),LED temperature (°C),Box temperature (°C),Sample RH (%),Span deviation,Mass concentration (μg/m³),Mass concentration (μg/m³),Mass concentration (μg/m³)
DateTimeUTC,F1_M11,P_M11,Q1_M11,Q2_M11,T1_M11,T2_M11,T3_M11,T4_M11,T5_M11,U1_M11,ZSPAN_M11,X0_M11,X2_M11,X1_M11
2023-05-10 01:00:00,,0826.6,5.00,0.00,29.7,27.7,00.0,38.0,31.4,25.6,0001.2,0018.39,0006.06,0004.38
2023-05-10 01:01:00,,0826.6,5.01,0.00,29.7,27.9,00.0,38.0,31.4,25.5,0001.2,0019.40,0006.12,0004.41
2023-05-10 01:02:00,,0826.6,4.99,0.00,29.7,28.1,00.0,38.0,31.5,25.4,0001.1,0019.29,0006.12,0004.44
2023-05-10 01:03:00,,0826.6,5.00,0.00,29.7,28.2,00.0,38.0,31.5,25.3,0001.4,0018.59,0006.16,0004.46
2023-05-10 01:04:00,,0826.6,4.99,0.00,29.8,28.3,00.0,38.1,31.5,25.3,0001.4,0017.91,0006.16,0004.47
2023-05-10 01:05:00,,0826.6,5.00,0.00,29.8,28.4,00.0,38.1,31.6,25.2,0001.7,0017.10,0006.12,0004.46
2023-05-10 01:06:00,,0826.6,5.01,0.00,29.8,28.5,00.0,38.1,31.6,25.2,0001.3,0017.41,0006.12,0004.48
2023-05-10 01:07:00,,0826.6,5.00,0.00,29.8,28.6,00.0,38.1,31.7,25.2,0001.7,0017.22,0006.10,0004.51
2023-05-10 01:08:00,,0826.6,5.00,0.00,29.9,28.2,00.0,38.1,31.6,25.2,0003.0,0016.71,0006.14,0004.52
2023-05-10 01:09:00,,0826.6,4.99,0.00,29.8,26.5,00.0,38.1,31.3,25.2,0003.2,0016.17,0006.07,0004.52
2023-05-10 01:10:00,,0826.6,5.02,0.00,29.8,25.9,00.0,38.0,31.2,25.3,0002.3,0016.74,0006.00,0004.52
2023-05-10 01:11:00,,0826.6,5.00,0.00,29.7,26.0,00.0,38.0,31.1,25.4,0001.7,0016.73,0005.97,0004.53
2023-05-10 01:12:00,,0826.6,5.01,0.00,29.6,26.3,00.0,38.0,31.1,25.5,0001.5,0015.48,0005.97,0004.54
2023-05-10 01:13:00,,0826.6,4.99,0.00,29.6,26.7,00.0,38.0,31.2,25.4,0001.8,0015.72,0005.98,0004.54
2023-05-10 01:14:00,,0826.6,5.00,0.00,29.6,27.0,00.0,38.0,31.3,25.2,0001.8,0016.44,0006.01,0004.56
2023-05-10 01:15:00,,0826.6,5.01,0.00,29.6,27.3,00.0,38.0,31.3,25.1,0001.8,0016.93,0006.06,0004.58
2023-05-10 01:16:00,,0826.6,5.01,0.00,29.6,27.5,00.0,38.0,31.3,25.1,0001.5,0017.12,0006.08,0004.61
2023-05-10 01:17:00,,0826.6,4.97,0.00,29.6,27.7,00.0,38.0,31.4,25.1,0002.7,0017.02,0006.10,0004.62
2023-05-10 01:18:00,,0826.6,5.01,0.00,29.7,27.9,00.0,38.0,31.4,25.0,0002.5,0017.66,0006.15,0004.64
2023-05-10 01:19:00,,0826.7,5.01,0.00,29.7,28.1,00.0,38.0,31.4,25.0,0000.2,0017.77,0006.14,0004.66
2023-05-10 01:20:00,,0826.8,5.01,0.00,29.7,28.2,00.0,38.0,31.5,24.9,0000.0,0017.05,0006.15,0004.67
2023-05-10 01:21:00,,0826.8,5.00,0.00,29.7,28.3,00.0,38.1,31.5,24.9,0000.7,0016.49,0006.14,0004.68
2023-05-10 01:22:00,,0826.8,5.00,0.00,29.8,28.4,00.0,38.1,31.5,25.0,0002.8,0016.35,0006.10,0004.69
2023-05-10 01:23:00,,0826.8,5.00,0.00,29.8,28.5,00.0,38.1,31.6,24.9,0003.3,0016.16,0006.09,0004.69
2023-05-10 01:24:00,,0826.8,5.00,0.00,29.8,28.5,00.0,38.1,31.6,24.7,0001.7,0016.60,0006.11,0004.70
2023-05-10 01:25:00,,0826.9,5.00,0.00,29.9,28.6,00.0,38.1,31.7,24.7,0000.0,0016.14,0006.08,0004.71
2023-05-10 01:26:00,,0826.9,4.99,0.00,29.9,28.7,00.0,38.2,31.7,24.6,0000.0,0016.01,0006.08,0004.71
2023-05-10 01:27:00,,0826.9,5.01,0.00,29.9,28.7,00.0,38.2,31.7,24.5,0000.4,0016.22,0006.08,0004.70
2023-05-10 01:28:00,,0826.9,4.99,0.00,29.9,27.8,00.0,38.2,31.6,24.5,0000.0,0016.52,0006.11,0004.70
2023-05-10 01:29:00,,0826.9,5.00,0.00,29.9,26.1,00.0,38.1,31.3,24.6,0000.6,0015.77,0006.09,0004.68
2023-05-10 01:30:00,,0826.9,5.00,0.00,29.8,25.7,00.0,38.0,31.1,24.8,0000.5,0015.36,0006.06,0004.67
2023-05-10 01:31:00,,0827.0,5.01,0.00,29.7,25.9,00.0,38.0,31.1,24.9,-000.0,0016.18,0006.10,0004.68
2023-05-10 01:32:00,,0827.0,4.99,0.00,29.7,26.3,00.0,38.0,31.1,25.1,0000.2,0017.13,0006.15,0004.69
2023-05-10 01:33:00,,0827.0,5.00,0.00,29.6,26.6,00.0,38.0,31.2,25.2,0000.8,0016.76,0006.19,0004.71
2023-05-10 01:34:00,,0827.1,5.00,0.00,29.6,27.0,00.0,38.0,31.3,25.2,0000.2,0017.28,0006.24,0004.71
2023-05-10 01:35:00,,0827.1,4.99,0.00,29.6,27.3,00.0,38.0,31.3,25.2,0000.0,0017.02,0006.29,0004.72
2023-05-10 01:36:00,,0827.1,5.00,0.00,29.7,27.6,00.0,38.0,31.4,25.2,0001.8,0016.73,0006.34,0004.74
2023-05-10 01:37:00,,0827.1,5.00,0.00,29.7,27.8,00.0,38.0,31.4,25.3,0002.2,0017.31,0006.29,0004.74
2023-05-10 01:38:00,,0827.1,4.99,0.00,29.7,27.9,00.0,38.0,31.4,25.3,0002.0,0017.22,0006.31,0004.77
2023-05-10 01:39:00,,0827.1,5.00,0.00,29.7,28.1,00.0,38.1,31.5,25.2,0002.3,0016.90,0006.33,0004.79
2023-05-10 01:40:00,,0827.1,5.01,0.00,29.8,28.2,00.0,38.1,31.5,25.2,0002.7,0017.07,0006.34,0004.80
2023-05-10 01:41:00,,0827.2,5.00,0.00,29.8,28.4,00.0,38.1,31.5,25.1,0002.9,0018.09,0006.38,0004.81
2023-05-10 01:42:00,,0827.2,4.98,0.00,29.8,28.4,00.0,38.1,31.6,25.1,0003.1,0017.84,0006.43,0004.82
2023-05-10 01:43:00,,0827.3,5.00,0.00,29.8,28.5,00.0,38.1,31.6,25.0,0003.1,0017.93,0006.46,0004.83
2023-05-10 01:44:00,,0827.3,5.01,0.00,29.9,28.6,00.0,38.1,31.7,25.0,0002.9,0017.42,0006.48,0004.84
2023-05-10 01:45:00,,0827.3,5.01,0.00,29.9,28.7,00.0,38.2,31.7,24.9,0002.5,0017.76,0006.42,0004.84
2023-05-10 01:46:00,,0827.4,4.98,0.00,29.9,28.7,00.0,38.2,31.7,24.9,0002.3,0018.88,0006.39,0004.85
2023-05-10 01:47:00,,0827.4,5.00,0.00,29.9,28.1,00.0,38.2,31.6,24.9,0002.1,0019.10,0006.34,0004.84
2023-05-10 01:48:00,,0827.4,5.00,0.00,29.9,26.2,00.0,38.1,31.3,24.9,0002.0,0018.59,0006.37,0004.85
2023-05-10 01:49:00,,0827.4,5.01,0.00,29.8,25.6,00.0,38.0,31.1,24.9,0001.9,0018.99,0006.34,0004.83
2023-05-10 01:50:00,,0827.4,5.01,0.00,29.7,25.7,00.0,38.0,31.0,24.9,0001.9,0019.27,0006.31,0004.82
2023-05-10 01:51:00,,0827.4,5.00,0.00,29.6,26.0,00.0,38.0,31.1,25.0,0002.0,0019.17,0006.27,0004.81
2023-05-10 01:52:00,,0827.4,4.99,0.00,29.6,26.4,00.0,38.0,31.2,25.1,0002.0,0018.81,0006.25,0004.80
2023-05-10 01:53:00,,0827.5,5.00,0.00,29.6,26.8,00.0,38.0,31.2,25.1,0002.3,0018.69,0006.24,0004.79
2023-05-10 01:54:00,,0827.4,4.99,0.00,29.6,27.1,00.0,38.0,31.3,25.0,0002.5,0017.71,0006.20,0004.79
2023-05-10 01:55:00,,0827.5,5.00,0.00,29.6,27.4,00.0,38.0,31.3,25.0,0002.7,0017.25,0006.16,0004.78
2023-05-10 01:56:00,,0827.5,5.00,0.00,29.6,27.6,00.0,38.0,31.3,25.0,0003.1,0016.53,0006.16,0004.79
2023-05-10 01:57:00,,0827.4,5.00,0.00,29.7,27.8,00.0,38.0,31.4,25.0,0003.4,0015.51,0006.18,0004.80
2023-05-10 01:58:00,,0827.4,5.00,0.00,29.7,28.0,00.0,38.0,31.4,24.9,0003.4,0015.44,0006.21,0004.81
2023-05-10 01:59:00,,0827.4,5.00,0.00,29.7,28.1,00.0,38.1,31.5,24.9,0003.2,0015.17,0006.23,0004.81
